| time (UTC) | temp C | wind direction | speed KPH | gust KPH | rain 1hr cm | rain 24hr cm | rain mn cm | humidity % | barometer mb |
| 20260504110334 | 10 | 182 | 1.6 | 14.5 | 0.00 | 0.00 | 0.00 | 75 | 1003.8 |
| 20260504100319 | 10 | 184 | 3.2 | 12.9 | 0.00 | 0.00 | 0.00 | 75 | 1003.7 |
| 20260504081842 | 10 | 181 | 6.4 | 17.7 | 0.00 | 0.00 | 0.00 | 72 | 1004.5 |
| 20260504081326 | 10 | 184 | 8.0 | 16.1 | 0.00 | 0.00 | 0.00 | 71 | 1004.5 |
| 20260504080849 | 10 | 176 | 8.0 | 19.3 | 0.00 | 0.00 | 0.00 | 71 | 1004.5 |
| 20260504080336 | 10 | 191 | 9.7 | 17.7 | 0.00 | 0.00 | 0.00 | 71 | 1004.6 |
| 20260504070331 | 10 | 191 | 8.0 | 16.1 | 0.00 | 0.00 | 0.00 | 69 | 1005.5 |
| 20260504050333 | 11 | 180 | 6.4 | 20.9 | 0.00 | 0.00 | 0.00 | 66 | 1006.8 |
| 20260504045821 | 11 | 185 | 11.3 | 20.9 | 0.00 | 0.00 | 0.00 | 66 | 1006.8 |
| 20260504045333 | 11 | 171 | 6.4 | 16.1 | 0.00 | 0.00 | 0.00 | 66 | 1006.8 |
| 20260504044821 | 11 | 161 | 8.0 | 19.3 | 0.00 | 0.00 | 0.00 | 67 | 1007.1 |
| 20260504044326 | 11 | 163 | 8.0 | 22.5 | 0.00 | 0.00 | 0.00 | 66 | 1007.1 |
| 20260504043817 | 11 | 191 | 8.0 | 22.5 | 0.00 | 0.00 | 0.00 | 67 | 1007.1 |
| 20260504043328 | 11 | 192 | 4.8 | 14.5 | 0.00 | 0.00 | 0.00 | 67 | 1007.1 |
| 20260504042820 | 11 | 163 | 4.8 | 19.3 | 0.00 | 0.00 | 0.00 | 67 | 1007.1 |
| 20260504042341 | 11 | 163 | 8.0 | 19.3 | 0.00 | 0.00 | 0.00 | 66 | 1007.1 |
| 20260504041837 | 11 | 185 | 6.4 | 17.7 | 0.00 | 0.00 | 0.00 | 66 | 1007.1 |
| 20260504041324 | 11 | 184 | 9.7 | 16.1 | 0.00 | 0.00 | 0.00 | 66 | 1007.1 |
| 20260504040829 | 11 | 188 | 8.0 | 17.7 | 0.00 | 0.00 | 0.00 | 65 | 1007.1 |
| 20260504040318 | 11 | 186 | 9.7 | 20.9 | 0.00 | 0.00 | 0.00 | 66 | 1007.3 |
| 20260504035828 | 11 | 159 | 9.7 | 20.9 | 0.00 | 0.00 | 0.00 | 66 | 1007.3 |
| 20260504035316 | 11 | 190 | 12.9 | 19.3 | 0.00 | 0.00 | 0.00 | 66 | 1007.3 |
| 20260504034825 | 11 | 172 | 9.7 | 19.3 | 0.00 | 0.00 | 0.00 | 66 | 1007.5 |
| 20260504034318 | 11 | 200 | 9.7 | 17.7 | 0.00 | 0.00 | 0.00 | 66 | 1007.5 |
| 20260504033903 | 11 | 175 | 9.7 | 20.9 | 0.00 | 0.00 | 0.00 | 66 | 1007.5 |
| 20260504033331 | 11 | 174 | 6.4 | 20.9 | 0.00 | 0.00 | 0.00 | 66 | 1007.6 |
| 20260504032837 | 11 | 169 | 8.0 | 14.5 | 0.00 | 0.00 | 0.00 | 66 | 1007.6 |
| 20260504032322 | 11 | 160 | 6.4 | 12.9 | 0.00 | 0.00 | 0.00 | 67 | 1007.6 |
| 20260504031831 | 11 | 160 | 6.4 | 16.1 | 0.00 | 0.00 | 0.00 | 67 | 1007.7 |
| 20260504031323 | 11 | 165 | 8.0 | 16.1 | 0.00 | 0.00 | 0.00 | 67 | 1007.7 |
| 20260504030832 | 11 | 155 | 8.0 | 17.7 | 0.00 | 0.00 | 0.00 | 67 | 1007.7 |
| 20260504030337 | 11 | 180 | 8.0 | 17.7 | 0.00 | 0.00 | 0.00 | 67 | 1007.9 |
| 20260504025829 | 11 | 183 | 11.3 | 17.7 | 0.00 | 0.00 | 0.00 | 67 | 1007.9 |
| 20260504025336 | 11 | 169 | 6.4 | 16.1 | 0.00 | 0.00 | 0.00 | 68 | 1007.9 |
| 20260504024859 | 10 | 165 | 4.8 | 12.9 | 0.00 | 0.00 | 0.00 | 69 | 1008.1 |
| 20260504024325 | 10 | 159 | 4.8 | 11.3 | 0.00 | 0.00 | 0.00 | 71 | 1008.1 |
| 20260504023836 | 10 | 160 | 3.2 | 9.7 | 0.00 | 0.00 | 0.00 | 71 | 1008.1 |
| 20260504023329 | 10 | 160 | 4.8 | 9.7 | 0.00 | 0.00 | 0.00 | 71 | 1008.2 |
| 20260504022829 | 10 | 160 | 3.2 | 9.7 | 0.00 | 0.00 | 0.00 | 71 | 1008.2 |
| 20260504022326 | 10 | 161 | 4.8 | 9.7 | 0.00 | 0.00 | 0.00 | 71 | 1008.2 |
| 20260504021838 | 10 | 161 | 4.8 | 9.7 | 0.00 | 0.00 | 0.00 | 71 | 1008.2 |
| 20260504021327 | 10 | 161 | 3.2 | 9.7 | 0.00 | 0.00 | 0.00 | 71 | 1008.2 |
| 20260504020820 | 10 | 161 | 3.2 | 9.7 | 0.00 | 0.00 | 0.00 | 71 | 1008.2 |
| 20260504020350 | 10 | 161 | 4.8 | 9.7 | 0.00 | 0.00 | 0.00 | 71 | 1008.2 |
| 20260504015822 | 10 | 164 | 4.8 | 9.7 | 0.00 | 0.00 | 0.00 | 71 | 1008.2 |
| 20260504015336 | 10 | 164 | 4.8 | 9.7 | 0.00 | 0.00 | 0.00 | 71 | 1008.2 |
| 20260504014830 | 11 | 181 | 4.8 | 9.7 | 0.00 | 0.00 | 0.00 | 71 | 1008.2 |
| 20260504014331 | 11 | 169 | 3.2 | 9.7 | 0.00 | 0.00 | 0.00 | 71 | 1008.2 |
| 20260504013823 | 11 | 178 | 3.2 | 11.3 | 0.00 | 0.00 | 0.00 | 71 | 1008.2 |
| 20260504013330 | 11 | 157 | 6.4 | 11.3 | 0.00 | 0.00 | 0.00 | 71 | 1008.3 |
| 20260504012816 | 11 | 164 | 4.8 | 11.3 | 0.00 | 0.00 | 0.00 | 71 | 1008.3 |
| 20260504012321 | 11 | 168 | 3.2 | 9.7 | 0.00 | 0.00 | 0.00 | 71 | 1008.3 |
| 20260504011832 | 11 | 163 | 3.2 | 11.3 | 0.00 | 0.00 | 0.00 | 71 | 1008.3 |
| 20260504011319 | 11 | 165 | 4.8 | 11.3 | 0.00 | 0.00 | 0.00 | 70 | 1008.3 |
| 20260504010832 | 11 | 163 | 6.4 | 9.7 | 0.00 | 0.00 | 0.00 | 70 | 1008.3 |
| 20260504010345 | 11 | 167 | 1.6 | 11.3 | 0.00 | 0.00 | 0.00 | 70 | 1008.3 |
| 20260504005846 | 11 | 164 | 3.2 | 11.3 | 0.00 | 0.00 | 0.00 | 70 | 1008.3 |
| 20260504005337 | 11 | 175 | 3.2 | 12.9 | 0.00 | 0.00 | 0.00 | 70 | 1008.3 |
| 20260504004856 | 11 | 193 | 3.2 | 12.9 | 0.00 | 0.00 | 0.00 | 70 | 1008.4 |
| 20260504004333 | 11 | 172 | 3.2 | 9.7 | 0.00 | 0.00 | 0.00 | 69 | 1008.4 |
| 20260504003832 | 11 | 177 | 3.2 | 11.3 | 0.00 | 0.00 | 0.00 | 69 | 1008.4 |
| 20260504003329 | 11 | 188 | 3.2 | 14.5 | 0.00 | 0.00 | 0.00 | 68 | 1008.6 |
| 20260504002838 | 11 | 201 | 6.4 | 16.1 | 0.00 | 0.00 | 0.00 | 68 | 1008.6 |
| 20260504002326 | 11 | 192 | 6.4 | 16.1 | 0.00 | 0.00 | 0.00 | 67 | 1008.6 |
| 20260504001825 | 11 | 192 | 8.0 | 14.5 | 0.00 | 0.00 | 0.00 | 67 | 1008.7 |
| 20260504001347 | 11 | 217 | 3.2 | 17.7 | 0.00 | 0.00 | 0.00 | 67 | 1008.7 |
| 20260504000833 | 11 | 194 | 8.0 | 17.7 | 0.00 | 0.00 | 0.00 | 66 | 1008.7 |
| 20260504000322 | 11 | 211 | 9.7 | 20.9 | 0.00 | 0.00 | 0.00 | 65 | 1008.8 |
| 20260503235846 | 11 | 213 | 9.7 | 20.9 | 0.00 | 0.00 | 0.00 | 65 | 1008.8 |
| 20260503235323 | 12 | 213 | 8.0 | 22.5 | 0.00 | 0.00 | 0.00 | 65 | 1008.8 |
| 20260503234838 | 12 | 210 | 11.3 | 22.5 | 0.00 | 0.00 | 0.00 | 64 | 1009.0 |
| 20260503234326 | 12 | 215 | 9.7 | 22.5 | 0.00 | 0.00 | 0.00 | 64 | 1009.0 |
| 20260503233813 | 12 | 213 | 14.5 | 33.8 | 0.00 | 0.00 | 0.00 | 64 | 1009.0 |
| 20260503233340 | 12 | 227 | 17.7 | 33.8 | 0.00 | 0.00 | 0.00 | 63 | 1009.0 |
| 20260503232846 | 12 | 199 | 12.9 | 35.4 | 0.00 | 0.00 | 0.00 | 63 | 1009.0 |
| 20260503232333 | 12 | 195 | 19.3 | 35.4 | 0.00 | 0.00 | 0.00 | 62 | 1009.0 |
| 20260503231821 | 12 | 216 | 11.3 | 24.1 | 0.00 | 0.00 | 0.00 | 63 | 1009.0 |
| 20260503231400 | 12 | 219 | 11.3 | 29.0 | 0.00 | 0.00 | 0.00 | 63 | 1009.0 |
| 20260503230825 | 12 | 203 | 17.7 | 29.0 | 0.00 | 0.00 | 0.00 | 62 | 1009.0 |
| 20260503230314 | 13 | 210 | 14.5 | 37.0 | 0.00 | 0.00 | 0.00 | 60 | 1008.9 |
| 20260503225828 | 13 | 227 | 22.5 | 37.0 | 0.00 | 0.00 | 0.00 | 58 | 1008.9 |
| 20260503225318 | 14 | 225 | 20.9 | 38.6 | 0.00 | 0.00 | 0.00 | 57 | 1008.9 |
| 20260503224826 | 14 | 205 | 14.5 | 25.7 | 0.00 | 0.00 | 0.00 | 58 | 1008.7 |
| 20260503224332 | 15 | 242 | 11.3 | 41.8 | 0.00 | 0.00 | 0.00 | 57 | 1008.7 |
| 20260503223828 | 15 | 214 | 25.7 | 41.8 | 0.00 | 0.00 | 0.00 | 55 | 1008.7 |
| 20260503223324 | 15 | 238 | 25.7 | 45.1 | 0.00 | 0.00 | 0.00 | 53 | 1008.6 |
| 20260503222814 | 15 | 212 | 20.9 | 53.1 | 0.00 | 0.00 | 0.00 | 53 | 1008.6 |
| 20260503222323 | 16 | 226 | 27.4 | 53.1 | 0.00 | 0.00 | 0.00 | 51 | 1008.6 |
| 20260503221820 | 16 | 253 | 19.3 | 41.8 | 0.00 | 0.00 | 0.00 | 50 | 1008.3 |
| 20260503221352 | 16 | 214 | 24.1 | 43.5 | 0.00 | 0.00 | 0.00 | 44 | 1008.3 |
| 20260503220846 | 17 | 217 | 22.5 | 37.0 | 0.00 | 0.00 | 0.00 | 43 | 1008.3 |
| 20260503220318 | 17 | 203 | 22.5 | 38.6 | 0.00 | 0.00 | 0.00 | 43 | 1008.3 |
| 20260503215811 | 17 | 211 | 16.1 | 38.6 | 0.00 | 0.00 | 0.00 | 43 | 1008.3 |
| 20260503215321 | 16 | 219 | 19.3 | 40.2 | 0.00 | 0.00 | 0.00 | 43 | 1008.3 |
| 20260503214840 | 16 | 207 | 20.9 | 40.2 | 0.00 | 0.00 | 0.00 | 43 | 1008.5 |
| 20260503214335 | 16 | 192 | 17.7 | 38.6 | 0.00 | 0.00 | 0.00 | 43 | 1008.5 |
| 20260503213847 | 16 | 240 | 19.3 | 37.0 | 0.00 | 0.00 | 0.00 | 44 | 1008.5 |
| 20260503213331 | 16 | 209 | 14.5 | 30.6 | 0.00 | 0.00 | 0.00 | 43 | 1008.5 |
| 20260503212820 | 16 | 203 | 20.9 | 38.6 | 0.00 | 0.00 | 0.00 | 43 | 1008.5 |
| 20260503212331 | 16 | 221 | 16.1 | 40.2 | 0.00 | 0.00 | 0.00 | 42 | 1008.5 |
| 20260503211827 | 17 | 218 | 24.1 | 40.2 | 0.00 | 0.00 | 0.00 | 41 | 1008.5 |
| 20260503211317 | 17 | 192 | 20.9 | 45.1 | 0.00 | 0.00 | 0.00 | 41 | 1008.5 |
| 20260503210858 | 17 | 200 | 27.4 | 45.1 | 0.00 | 0.00 | 0.00 | 42 | 1008.5 |
| 20260503210323 | 16 | 206 | 25.7 | 45.1 | 0.00 | 0.00 | 0.00 | 41 | 1008.7 |
| 20260503205838 | 16 | 242 | 25.7 | 45.1 | 0.00 | 0.00 | 0.00 | 41 | 1008.7 |
| 20260503205323 | 17 | 202 | 22.5 | 48.3 | 0.00 | 0.00 | 0.00 | 40 | 1008.7 |
| 20260503204814 | 16 | 219 | 22.5 | 49.9 | 0.00 | 0.00 | 0.00 | 40 | 1008.9 |
| 20260503204329 | 17 | 236 | 27.4 | 49.9 | 0.00 | 0.00 | 0.00 | 39 | 1008.9 |
| 20260503203819 | 17 | 197 | 29.0 | 51.5 | 0.00 | 0.00 | 0.00 | 39 | 1008.9 |
| 20260503203322 | 17 | 202 | 25.7 | 51.5 | 0.00 | 0.00 | 0.00 | 39 | 1009.0 |
| 20260503202815 | 17 | 217 | 25.7 | 43.5 | 0.00 | 0.00 | 0.00 | 38 | 1009.0 |
| 20260503202334 | 17 | 201 | 22.5 | 43.5 | 0.00 | 0.00 | 0.00 | 38 | 1009.0 |
| 20260503201838 | 17 | 207 | 22.5 | 53.1 | 0.00 | 0.00 | 0.00 | 39 | 1009.2 |
| 20260503201330 | 17 | 224 | 14.5 | 45.1 | 0.00 | 0.00 | 0.00 | 40 | 1009.2 |
| 20260503200822 | 17 | 207 | 24.1 | 45.1 | 0.00 | 0.00 | 0.00 | 38 | 1009.2 |
| 20260503200328 | 17 | 223 | 27.4 | 43.5 | 0.00 | 0.00 | 0.00 | 38 | 1009.2 |
| 20260503195813 | 17 | 225 | 25.7 | 46.7 | 0.00 | 0.00 | 0.00 | 39 | 1009.2 |
| 20260503195320 | 17 | 199 | 19.3 | 46.7 | 0.00 | 0.00 | 0.00 | 40 | 1009.2 |
| 20260503194828 | 17 | 201 | 17.7 | 43.5 | 0.00 | 0.00 | 0.00 | 39 | 1009.4 |
| 20260503194321 | 17 | 192 | 17.7 | 37.0 | 0.00 | 0.00 | 0.00 | 39 | 1009.4 |
| 20260503193841 | 17 | 226 | 22.5 | 41.8 | 0.00 | 0.00 | 0.00 | 38 | 1009.4 |
| 20260503193329 | 17 | 204 | 25.7 | 41.8 | 0.00 | 0.00 | 0.00 | 39 | 1009.6 |
| 20260503192838 | 17 | 244 | 20.9 | 41.8 | 0.00 | 0.00 | 0.00 | 38 | 1009.6 |
| 20260503192327 | 17 | 198 | 20.9 | 43.5 | 0.00 | 0.00 | 0.00 | 38 | 1009.6 |
| 20260503191819 | 16 | 196 | 24.1 | 43.5 | 0.00 | 0.00 | 0.00 | 39 | 1009.8 |
| 20260503191341 | 16 | 202 | 22.5 | 40.2 | 0.00 | 0.00 | 0.00 | 39 | 1009.8 |
| 20260503190843 | 17 | 215 | 25.7 | 41.8 | 0.00 | 0.00 | 0.00 | 38 | 1009.8 |
| 20260503190326 | 17 | 264 | 24.1 | 45.1 | 0.00 | 0.00 | 0.00 | 39 | 1010.0 |
| 20260503185834 | 17 | 202 | 25.7 | 45.1 | 0.00 | 0.00 | 0.00 | 39 | 1010.0 |
| 20260503185323 | 17 | 213 | 19.3 | 38.6 | 0.00 | 0.00 | 0.00 | 39 | 1010.0 |
| 20260503184824 | 17 | 229 | 24.1 | 43.5 | 0.00 | 0.00 | 0.00 | 39 | 1010.3 |
| 20260503184313 | 17 | 228 | 12.9 | 43.5 | 0.00 | 0.00 | 0.00 | 39 | 1010.3 |
| 20260503183826 | 17 | 189 | 22.5 | 53.1 | 0.00 | 0.00 | 0.00 | 39 | 1010.3 |
| 20260503183352 | 16 | 211 | 12.9 | 53.1 | 0.00 | 0.00 | 0.00 | 40 | 1010.4 |
| 20260503182822 | 16 | 215 | 22.5 | 41.8 | 0.00 | 0.00 | 0.00 | 38 | 1010.4 |
| 20260503182340 | 16 | 197 | 27.4 | 41.8 | 0.00 | 0.00 | 0.00 | 37 | 1010.4 |
| 20260503181828 | 17 | 190 | 16.1 | 38.6 | 0.00 | 0.00 | 0.00 | 40 | 1010.6 |
| 20260503181321 | 17 | 213 | 17.7 | 38.6 | 0.00 | 0.00 | 0.00 | 38 | 1010.6 |
| 20260503180813 | 16 | 219 | 11.3 | 37.0 | 0.00 | 0.00 | 0.00 | 41 | 1010.6 |
| 20260503180325 | 16 | 252 | 16.1 | 41.8 | 0.00 | 0.00 | 0.00 | 38 | 1010.8 |
| 20260503175816 | 16 | 206 | 22.5 | 45.1 | 0.00 | 0.00 | 0.00 | 40 | 1010.8 |
| 20260503175334 | 16 | 199 | 24.1 | 41.8 | 0.00 | 0.00 | 0.00 | 39 | 1010.8 |
| 20260503174838 | 16 | 240 | 24.1 | 43.5 | 0.00 | 0.00 | 0.00 | 39 | 1011.0 |
| 20260503174322 | 16 | 207 | 20.9 | 37.0 | 0.00 | 0.00 | 0.00 | 41 | 1011.0 |
| 20260503173851 | 16 | 200 | 19.3 | 45.1 | 0.00 | 0.00 | 0.00 | 40 | 1011.0 |
| 20260503173323 | 16 | 184 | 27.4 | 46.7 | 0.00 | 0.00 | 0.00 | 38 | 1011.2 |
| 20260503172816 | 16 | 199 | 17.7 | 35.4 | 0.00 | 0.00 | 0.00 | 39 | 1011.2 |
| 20260503172325 | 16 | 227 | 24.1 | 35.4 | 0.00 | 0.00 | 0.00 | 42 | 1011.2 |
| 20260503171835 | 15 | 200 | 17.7 | 30.6 | 0.00 | 0.00 | 0.00 | 45 | 1011.4 |
| 20260503171325 | 15 | 207 | 12.9 | 37.0 | 0.00 | 0.00 | 0.00 | 44 | 1011.4 |
| 20260503170843 | 15 | 211 | 17.7 | 37.0 | 0.00 | 0.00 | 0.00 | 43 | 1011.4 |
| 20260503170330 | 16 | 219 | 14.5 | 35.4 | 0.00 | 0.00 | 0.00 | 43 | 1011.5 |
| 20260503150815 | 13 | 234 | 12.9 | 29.0 | 0.00 | 0.00 | 0.00 | 51 | 1012.5 |
| 20260503150332 | 13 | 242 | 16.1 | 25.7 | 0.00 | 0.00 | 0.00 | 51 | 1012.6 |
| 20260503140315 | 10 | 234 | 12.9 | 25.7 | 0.00 | 0.00 | 0.00 | 59 | 1013.0 |
| 20260503131346 | 8 | 223 | 8.0 | 30.6 | 0.00 | 0.00 | 0.00 | 62 | 1013.2 |
| 20260503130833 | 8 | 254 | 16.1 | 25.7 | 0.00 | 0.00 | 0.00 | 61 | 1013.2 |
| 20260503130319 | 8 | 207 | 12.9 | 24.1 | 0.00 | 0.00 | 0.00 | 62 | 1013.2 |